This is the latest recevied weather packets stored in our database for station/object SQ5LTL-2. If no packets are shown the sender has not sent any weather packets the latest 10 day(s).
| Time | Temp. | Humidity | Pressure | Rain* | Wind** | Luminosity | Snow |
|---|---|---|---|---|---|---|---|
| 1777825836 | 23.89° C | 30% | 1015.8 hPa | 0 mm | - | 32 W/m² | - |
| 1777825533 | 24.44° C | 30% | 1015.8 hPa | 0 mm | - | 37 W/m² | - |
| 1777825233 | 24.44° C | 30% | 1015.9 hPa | 0 mm | - | 39 W/m² | - |
| 1777824931 | 24.44° C | 29% | 1015.9 hPa | 0 mm | - | 36 W/m² | - |
| 1777824629 | 24.44° C | 29% | 1015.9 hPa | 0 mm | - | 44 W/m² | - |
| 1777824327 | 24.44° C | 29% | 1015.9 hPa | 0 mm | - | 49 W/m² | - |
| 1777824025 | 24.44° C | 29% | 1016 hPa | 0 mm | - | 44 W/m² | - |
| 1777823724 | 25° C | 28% | 1016.1 hPa | 0 mm | - | 59 W/m² | - |
| 1777823424 | 25° C | 28% | 1016.1 hPa | 0 mm | - | 83 W/m² | - |
| 1777823122 | 25° C | 28% | 1016.2 hPa | 0 mm | - | 121 W/m² | - |
| 1777822819 | 25° C | 28% | 1016.1 hPa | 0 mm | - | 131 W/m² | - |
| 1777822520 | 25° C | 28% | 1016.2 hPa | 0 mm | - | 134 W/m² | - |
| 1777822217 | 25.56° C | 28% | 1016.2 hPa | 0 mm | - | 142 W/m² | - |
| 1777821937 | 25.56° C | 28% | 1016.2 hPa | 0 mm | - | 154 W/m² | - |
| 1777821634 | 25.56° C | 27% | 1016.3 hPa | 0 mm | - | 170 W/m² | - |
| 1777821333 | 25.56° C | 28% | 1016.2 hPa | 0 mm | - | 188 W/m² | - |
| 1777821032 | 25.56° C | 27% | 1016.3 hPa | 0 mm | - | 207 W/m² | - |
| 1777820731 | 25.56° C | 27% | 1016.6 hPa | 0 mm | - | 226 W/m² | - |
| 1777820429 | 25.56° C | 28% | 1016.5 hPa | 0 mm | - | 241 W/m² | - |
| 1777820127 | 25° C | 28% | 1016.5 hPa | 0 mm | - | 257 W/m² | - |
| 1777819825 | 25° C | 28% | 1016.6 hPa | 0 mm | - | 269 W/m² | - |
| 1777819523 | 25° C | 27% | 1016.6 hPa | 0 mm | - | 279 W/m² | - |
| 1777819223 | 25° C | 28% | 1016.8 hPa | 0 mm | - | 286 W/m² | - |
| 1777818920 | 25° C | 27% | 1016.8 hPa | 0 mm | - | 295 W/m² | - |
| 1777818619 | 25.56° C | 27% | 1017 hPa | 0 mm | - | 308 W/m² | - |
* Rain latest hour (hover to see other rain measurements)
** Current wind speed in m/s (hover to see current wind gust speed)